This is the latest recevied weather packets stored in our database for station/object DB0WUN-13. If no packets are shown the sender has not sent any weather packets the latest 10 day(s).
| Time | Temp. | Humidity | Pressure | Rain* | Wind** | Luminosity | Snow |
|---|---|---|---|---|---|---|---|
| 1777201494 | 10° C | 44% | 1023.4 hPa | 0 mm | - | 888 W/m² | - |
| 1777201431 | 10° C | 44% | 1023.5 hPa | 0 mm | - | 895 W/m² | - |
| 1777201373 | 10° C | 43% | 1023.5 hPa | 0 mm | - | 895 W/m² | - |
| 1777201313 | 10.56° C | 45% | 1023.5 hPa | 0 mm | - | 895 W/m² | - |
| 1777201248 | 10.56° C | 49% | 1023.5 hPa | 0 mm | - | 895 W/m² | - |
| 1777201187 | 10° C | 48% | 1023.5 hPa | 0 mm | - | 891 W/m² | - |
| 1777201128 | 10° C | 49% | 1023.5 hPa | 0 mm | - | 888 W/m² | - |
| 1777201067 | 10° C | 47% | 1023.5 hPa | 0 mm | - | 886 W/m² | - |
| 1777201006 | 10° C | 47% | 1023.6 hPa | 0 mm | - | 891 W/m² | - |
| 1777200944 | 10° C | 48% | 1023.6 hPa | 0 mm | - | 888 W/m² | - |
| 1777200882 | 9.44° C | 46% | 1023.6 hPa | 0 mm | - | 888 W/m² | - |
| 1777200823 | 9.44° C | 47% | 1023.7 hPa | 0 mm | - | 889 W/m² | - |
| 1777200762 | 9.44° C | 47% | 1023.5 hPa | 0 mm | - | 886 W/m² | - |
| 1777200703 | 9.44° C | 47% | 1023.6 hPa | 0 mm | - | 888 W/m² | - |
| 1777200645 | 9.44° C | 47% | 1023.7 hPa | 0 mm | - | 889 W/m² | - |
| 1777200575 | 9.44° C | 46% | 1023.6 hPa | 0 mm | - | 889 W/m² | - |
| 1777200530 | 9.44° C | 46% | 1023.7 hPa | 0 mm | - | 888 W/m² | - |
| 1777200493 | 10° C | 46% | 1023.6 hPa | 0 mm | - | 886 W/m² | - |
| 1777200462 | 9.44° C | 45% | 1023.6 hPa | 0 mm | - | 889 W/m² | - |
| 1777200423 | 9.44° C | 44% | 1023.6 hPa | 0 mm | - | 889 W/m² | - |
| 1777200367 | 9.44° C | 44% | 1023.6 hPa | 0 mm | - | 889 W/m² | - |
| 1777200331 | 9.44° C | 44% | 1023.6 hPa | 0 mm | - | 886 W/m² | - |
| 1777200290 | 10° C | 45% | 1023.6 hPa | 0 mm | - | 884 W/m² | - |
| 1777200255 | 10° C | 49% | 1023.6 hPa | 0 mm | - | 886 W/m² | - |
| 1777200213 | 10° C | 48% | 1023.6 hPa | 0 mm | - | 884 W/m² | - |
* Rain latest hour (hover to see other rain measurements)
** Current wind speed in m/s (hover to see current wind gust speed)